Location: Unspecified
(0.0000°N, 0.0000°E)
Time: 08:23:13
(UTC+00:00)

Altair - All Passes

Search period start: 29 September 2016 00:00
Search period end: 09 October 2016 00:00
Orbit: 1501 x 1683 km, 47.2° (Epoch: 28 September)

Date Brightness Start Highest point End Pass type
(mag) Time Alt. Az. Time Alt. Az. Time Alt. Az.
29 Sep - 01:30:02 10° WSW 01:38:48 37° NW 01:47:49 10° NNE visible
29 Sep - 10:13:09 10° N 10:19:42 20° NE 10:26:03 10° E daylight
29 Sep - 12:14:56 10° NW 12:24:33 82° SW 12:33:51 10° SE daylight
29 Sep - 14:24:45 10° WSW 14:29:22 15° SW 14:33:58 10° SSW daylight
29 Sep - 22:59:56 10° SSW 23:08:58 44° SE 23:18:14 10° ENE night (unlit)
30 Sep - 01:04:36 10° WSW 01:13:36 41° NW 01:22:51 10° NNE night (unlit)
30 Sep - 09:48:33 10° N 09:54:27 17° NE 10:00:11 10° E daylight
30 Sep - 11:49:45 10° NW 11:59:25 89° NE 12:08:45 10° SE daylight
30 Sep - 13:58:36 10° W 14:04:09 17° SW 14:09:39 10° S daylight
30 Sep - 22:35:02 10° SSW 22:43:47 39° SE 22:52:47 10° ENE night (unlit)
01 Oct - 00:39:13 10° WSW 00:48:24 46° NW 00:57:53 10° NNE night (unlit)
01 Oct - 09:24:06 10° NNE 09:29:10 15° NE 09:34:09 10° ENE daylight
01 Oct - 11:24:36 10° NW 11:34:16 81° NE 11:43:37 10° SE daylight
01 Oct - 13:32:39 10° W 13:38:56 20° SW 13:45:09 10° S daylight
01 Oct - 22:10:09 10° SSW 22:18:37 35° SE 22:27:16 10° ENE visible
02 Oct - 00:13:53 10° WSW 00:23:12 51° NW 00:32:52 10° NNE night (unlit)
02 Oct - 08:59:52 10° NNE 09:03:53 13° NE 09:07:51 10° ENE daylight
02 Oct - 10:59:27 10° NNW 11:09:08 73° NE 11:18:27 10° SE daylight
02 Oct - 13:06:50 10° W 13:13:43 22° SW 13:20:32 10° S daylight
02 Oct - 21:45:20 10° S 21:53:25 31° SE 22:01:42 10° ENE visible
02 Oct - 23:48:36 10° SW 23:58:02 58° NW 00:07:49 10° NNE night (unlit)
03 Oct - 08:36:08 10° NNE 08:38:35 11° NE 08:41:01 10° ENE daylight
03 Oct - 10:34:21 10° NNW 10:43:59 65° NE 10:53:15 10° SE daylight
03 Oct - 12:41:06 10° W 12:48:32 26° SW 12:55:51 10° S daylight
03 Oct - 21:20:34 10° S 21:28:14 27° SE 21:36:05 10° ENE visible
03 Oct - 23:23:21 10° SW 23:32:51 64° NW 23:42:44 10° NNE night (unlit)
04 Oct - 01:35:47 10° WNW 01:38:21 11° NW 01:40:55 10° NNW night (unlit)
04 Oct - 10:09:16 10° NNW 10:18:50 58° NE 10:28:01 10° SE daylight
04 Oct - 12:15:28 10° WNW 12:23:22 29° SW 12:31:06 10° S daylight
04 Oct - 20:55:51 10° S 21:03:02 24° SE 21:10:22 10° E visible
04 Oct - 22:58:08 10° SW 23:07:41 72° NW 23:17:37 10° NNE night (unlit)
05 Oct - 01:08:55 10° WNW 01:13:01 13° NW 01:17:11 10° NNW night (unlit)
05 Oct - 09:44:13 10° NNW 09:53:40 52° NE 10:02:45 10° SE daylight
05 Oct - 11:49:54 10° WNW 11:58:11 33° SW 12:06:19 10° SSE daylight
05 Oct - 20:31:13 10° S 20:37:50 21° SE 20:44:34 10° E visible
05 Oct - 22:32:57 10° SW 22:42:32 79° NW 22:52:29 10° NE visible
06 Oct - 00:42:35 10° WNW 00:47:43 15° NW 00:52:57 10° NNW night (unlit)
06 Oct - 09:19:12 10° NNW 09:28:30 47° NE 09:37:26 10° ESE daylight
06 Oct - 11:24:23 10° WNW 11:33:02 37° SW 11:41:28 10° SSE daylight
06 Oct - 20:06:40 10° S 20:12:36 18° SE 20:18:38 10° E visible
06 Oct - 22:07:48 10° SW 22:17:22 88° NW 22:27:18 10° NE visible
07 Oct - 00:16:31 10° W 00:22:26 17° NW 00:28:29 10° N night (unlit)
07 Oct - 08:54:13 10° NNW 09:03:19 42° NE 09:12:05 10° ESE daylight
07 Oct - 10:58:55 10° WNW 11:07:52 42° SW 11:16:35 10° SSE daylight
07 Oct - 19:42:16 10° SSE 19:47:22 16° SE 19:52:33 10° E visible
07 Oct - 21:42:41 10° SW 21:52:13 84° SE 22:02:07 10° NE visible
07 Oct - 23:50:38 10° W 23:57:10 20° NW 00:03:53 10° N night (unlit)
08 Oct - 08:29:16 10° NNW 08:38:08 37° NE 08:46:41 10° ESE daylight
08 Oct - 10:33:30 10° WNW 10:42:43 48° SW 10:51:39 10° SSE daylight
08 Oct - 19:18:05 10° SSE 19:22:08 13° SE 19:26:12 10° ESE visible
08 Oct - 21:17:37 10° SW 21:27:04 76° SE 21:36:53 10° NE visible
08 Oct - 23:24:51 10° W 23:31:55 23° NW 23:39:11 10° N night (unlit)
